Weather History for KMTH - June, 2012

Change the Weather History Date:

Tuesday, June 26, 2012

  Actual Average Record
Temperature  
Mean Temperature 86 °F 85 °F  
Max Temperature 90 °F 91 °F 93 °F (2004)
Min Temperature 82 °F 79 °F 75 °F (1999)
Degree Days  
Heating Degree Days 0 0  
Month to date heating degree days 0 0  
Since 1 June heating degree days 0 0  
Since 1 July heating degree days 33 81  
Cooling Degree Days 21 20  
Month to date cooling degree days 480 515  
Year to date cooling degree days 2319 2058  
Since 1 June cooling degree days 480 515  
Growing Degree Days 36 (Base 50)    
Moisture  
Dew Point 75 °F    
Average Humidity 77    
Maximum Humidity 85    
Minimum Humidity 68    
Precipitation  
Precipitation 0.00 in 0.22 in 0.75 in (2002)
Month to date precipitation 5.24 4.82  
Year to date precipitation 24.75 16.76  
Snow  
Snow 0.00 in - - ()
Month to date snowfall 0.0  
Since 1 June snowfall 0.0  
Since 1 July snowfall 0.0  
Snow Depth 0.00 in    
Sea Level Pressure  
Sea Level Pressure 29.80 in    
Wind  
Wind Speed 11 mph (SSW)    
Max Wind Speed 18 mph    
Max Gust Speed 30 mph    
Visibility 10 miles    
Events      
T = Trace of Precipitation, MM = Missing Value Source: NWS Daily Summary

Daily Weather History Graph

Daily Weather History Graph

Search for Another Location

Airport or City:

Trip Planner

Search our weather history database for the weather conditions in past years. The results will help you decide how hot, cold, wet, or windy it might be!

Date:

Astronomy

Jun. 26, 2012 Rise Set
Actual Time 6:37 AM EDT 8:17 PM EDT
Civil Twilight 6:11 AM EDT 8:42 PM EDT
Nautical Twilight 5:40 AM EDT 9:13 PM EDT
Astronomical Twilight 5:08 AM EDT 9:45 PM EDT
Moon 1:04 PM EDT (6/26) 12:27 AM EDT (6/26)
Length of Visible Light 14h 31m
Length of Day
13h 39m
Waxing Crescent, 45% of the Moon is Illuminated
Jun 26
Waxing Crescent
Jun 26
First Quarter
Jul 3
Full
Jul 10
Last Quarter
Jul 19
New

Hourly Weather History & Observations

Time (EDT) Temp. Heat Index Dew Point Humidity Pressure Visibility Wind Dir Wind Speed Gust Speed Precip Events Conditions
12:53 AM 82.9 °F 88.8 °F 73.0 °F 72% 29.80 in 10.0 mi SSW 16.1 mph 25.3 mph N/A   Partly Cloudy
1:53 AM 82.9 °F 89.4 °F 73.9 °F 74% 29.78 in 10.0 mi South 13.8 mph 26.5 mph N/A   Mostly Cloudy
2:04 AM 82.4 °F 88.2 °F 73.4 °F 74% 29.78 in 10.0 mi South 13.8 mph 28.8 mph N/A   Mostly Cloudy
2:48 AM 82.4 °F 88.2 °F 73.4 °F 74% 29.77 in 10.0 mi SSW 17.3 mph 26.5 mph N/A   Mostly Cloudy
2:53 AM 82.0 °F 87.4 °F 73.0 °F 74% 29.77 in 10.0 mi SSW 18.4 mph 29.9 mph N/A   Mostly Cloudy
3:39 AM 82.4 °F 88.2 °F 73.4 °F 74% 29.76 in 10.0 mi SSW 13.8 mph 25.3 mph N/A   Mostly Cloudy
3:53 AM 82.0 °F 87.9 °F 73.9 °F 76% 29.76 in 10.0 mi SSW 16.1 mph 25.3 mph N/A   Mostly Cloudy
4:12 AM 82.4 °F 88.2 °F 73.4 °F 74% 29.76 in 10.0 mi SSW 13.8 mph 25.3 mph N/A   Scattered Clouds
4:53 AM 82.0 °F 87.4 °F 73.0 °F 74% 29.77 in 10.0 mi SSW 12.7 mph 23.0 mph N/A   Mostly Cloudy
5:53 AM 82.0 °F 87.4 °F 73.0 °F 74% 29.77 in 10.0 mi SSW 16.1 mph 27.6 mph N/A   Clear
6:53 AM 82.0 °F 87.9 °F 73.9 °F 76% 29.78 in 10.0 mi SSW 15.0 mph 25.3 mph N/A   Clear
7:53 AM 82.9 °F 89.4 °F 73.9 °F 74% 29.81 in 10.0 mi SSW 15.0 mph 27.6 mph N/A   Mostly Cloudy
8:53 AM 84.0 °F 91.2 °F 73.9 °F 72% 29.82 in 10.0 mi SSW 15.0 mph 24.2 mph N/A   Scattered Clouds
9:53 AM 84.9 °F 93.3 °F 75.0 °F 72% 29.82 in 10.0 mi SSW 12.7 mph 21.9 mph N/A   Scattered Clouds
10:53 AM 86.0 °F 95.1 °F 75.0 °F 70% 29.82 in 10.0 mi SSW 11.5 mph 25.3 mph N/A   Partly Cloudy
11:53 AM 88.0 °F 98.5 °F 75.9 °F 67% 29.83 in 10.0 mi SSW 11.5 mph 24.2 mph N/A   Clear
12:50 PM 87.8 °F 97.6 °F 75.2 °F 66% 29.83 in 10.0 mi SSW 10.4 mph 20.7 mph N/A   Mostly Cloudy
12:53 PM 88.0 °F 98.5 °F 75.9 °F 67% 29.83 in 10.0 mi SW 9.2 mph 20.7 mph N/A   Mostly Cloudy
1:09 PM 87.8 °F 97.6 °F 75.2 °F 66% 29.82 in 10.0 mi SW 11.5 mph 23.0 mph N/A   Scattered Clouds
1:53 PM 90.0 °F 102.5 °F 77.0 °F 65% 29.81 in 10.0 mi SW 8.1 mph 19.6 mph N/A   Clear
2:53 PM 89.1 °F 101.4 °F 77.0 °F 67% 29.81 in 10.0 mi SSW 4.6 mph - N/A   Clear
3:53 PM 87.1 °F 98.8 °F 77.0 °F 72% 29.79 in 9.0 mi SSW 6.9 mph - N/A   Clear
4:53 PM 87.1 °F 98.8 °F 77.0 °F 72% 29.79 in 10.0 mi SW 9.2 mph - N/A   Clear
5:53 PM 86.0 °F 96.9 °F 77.0 °F 74% 29.78 in 10.0 mi SSW 8.1 mph - N/A   Clear
6:53 PM 84.9 °F 94.1 °F 75.9 °F 74% 29.81 in 10.0 mi SSW 6.9 mph - N/A   Mostly Cloudy
7:53 PM 84.0 °F 93.7 °F 77.0 °F 79% 29.81 in 10.0 mi SSW 8.1 mph - N/A   Clear
8:53 PM 82.9 °F 89.4 °F 73.9 °F 74% 29.83 in 10.0 mi SSW 10.4 mph - N/A   Mostly Cloudy
9:53 PM 82.9 °F 90.8 °F 75.9 °F 79% 29.83 in 10.0 mi SW 6.9 mph - N/A   Scattered Clouds
10:53 PM 82.9 °F 90.8 °F 75.9 °F 79% 29.84 in 10.0 mi SW 9.2 mph - N/A   Clear
11:53 PM 82.9 °F 91.8 °F 77.0 °F 82% 29.84 in 10.0 mi SSW 9.2 mph - N/A   Clear